Content
SEND FEEDBACK

Daily
Averages
Monthly
Summary
United States of America

CLEVELAND, TENNESSEE


Home > North America > United States > Tennessee
Elevation: 874 feet     Latitude: 35 14N     Longitude: 084 49W

WEATHER
 
SELECT A DAY
Number of Records: 196,762;   Date Range: 1/1/95 - 8/30/14
 
SHARE

PRINT THIS DATA

[ ← Previous Day ]
WEATHER ALMANAC - FEBRUARY 13, 2013
[ Next Day → ]
[ °C ]   °F
Weather ElementAverageHighLow
Temperature44.2 °F48.9 °F (10:53 am)42.1 °F (5:53 pm)
Dewpoint40.3 °F46.4 °F (10:16 am)33.8 °F (10:34 pm)
Humidity86.7 %100 % (3:53 am)70 % (10:34 pm)
Barometer29.83 in30.03 in (11:53 pm)29.71 in (5:53 am)
Wind Speed5.4 mph18.4 mph (2:53 pm)
Wind Gust28.8 mph (2:53 pm)
Weather ElementAverage
Visibility6.9 mi
Wind DirectionS (180.3 °)

Weather ElementTotal
Precipitation0.07 in
Heating Degree Days19.5 (Base 65)
Averaged from 35 records on February 13, 2013
WEATHER CONDITIONS BREAKOUT
WIND DIRECTION BREAKOUT
WEATHER BY HOUR - FEBRUARY 13, 2013
[ °C ]   °F
Local TimeTemperatureDewpointHumidityBarometerVisibilityWind DirectionWind SpeedGust SpeedPrecipitationEventsConditions
1:53 AM44.1 °F41.0 °F89 %29.81 in10.0 miCalm0.00 inOvercast
2:43 AM44.6 °F42.8 °F93 %29.80 in10.0 miNNE (20°)3.5 mph0.01 inOvercast
2:53 AM44.1 °F42.1 °F93 %29.79 in10.0 miCalm0.01 inOvercast
3:53 AM43.0 °F43.0 °F100 %29.77 in5.0 miCalmOvercast
4:32 AM42.8 °F42.8 °F100 %29.74 in3.0 miCalmOvercast
4:53 AM43.0 °F43.0 °F100 %29.73 in3.0 miCalmOvercast
5:01 AM42.8 °F42.8 °F100 %29.74 in2.0 miCalmOvercast
5:12 AM42.8 °F42.8 °F100 %29.73 in2.0 miCalmOvercast
5:48 AM42.8 °F42.8 °F100 %29.72 in1.2 miCalm0.01 inLight Drizzle
5:53 AM43.0 °F43.0 °F100 %29.71 in1.2 miCalm0.01 inLight Drizzle
6:50 AM44.6 °F44.6 °F100 %29.72 in1.5 miSSE (160°)4.6 mph0.01 inLight Drizzle
6:53 AM44.6 °F44.6 °F100 %29.72 in1.5 miSSE (150°)3.5 mphLight Drizzle
7:53 AM45.0 °F45.0 °F100 %29.73 in1.5 miSouth (180°)6.9 mph0.00 inLight Drizzle
8:53 AM46.4 °F44.6 °F93 %29.75 in1.8 miSouth (170°)8.1 mphLight Drizzle
8:58 AM46.4 °F44.6 °F93 %29.75 in2.0 miSouth (190°)6.9 mph0.00 inLight Drizzle
9:53 AM46.9 °F46.0 °F97 %29.75 in2.5 miSouth (190°)9.2 mph0.01 inLight Drizzle
10:16 AM48.2 °F46.4 °F93 %29.75 in5.0 miSW (220°)13.8 mph20.7 mph0.00 inRainLight Rain
10:53 AM48.9 °F45.0 °F86 %29.78 in10.0 miSW (220°)16.1 mph0.01 inLight Drizzle
11:53 AM48.0 °F43.0 °F83 %29.78 in10.0 miWSW (250°)10.4 mph0.00 inOvercast
12:53 PM46.9 °F41.0 °F80 %29.80 in10.0 miWest (260°)10.4 mphOvercast
1:53 PM46.9 °F42.1 °F83 %29.81 in10.0 miWSW (240°)4.6 mphMostly Cloudy
2:53 PM46.0 °F37.9 °F73 %29.82 in10.0 miNW (310°)18.4 mph28.8 mphMostly Cloudy
3:53 PM45.0 °F37.0 °F74 %29.86 in10.0 miWNW (290°)12.7 mphMostly Cloudy
4:53 PM43.0 °F35.1 °F74 %29.91 in10.0 miNW (310°)12.7 mphMostly Cloudy
5:53 PM42.1 °F36.0 °F79 %29.93 in10.0 miNW (310°)4.6 mphMostly Cloudy
6:11 PM42.8 °F35.6 °F76 %29.93 in10.0 miNW (320°)3.5 mphMostly Cloudy
6:34 PM42.8 °F35.6 °F76 %29.94 in10.0 miNW (320°)4.6 mphOvercast
6:53 PM42.1 °F35.1 °F76 %29.96 in10.0 miNW (310°)3.5 mphMostly Cloudy
7:41 PM42.8 °F35.6 °F76 %29.96 in10.0 miNW (320°)4.6 mphMostly Cloudy
7:53 PM42.1 °F35.1 °F76 %29.96 in10.0 miNNW (330°)3.5 mphMostly Cloudy
8:53 PM42.1 °F36.0 °F79 %29.98 in10.0 miCalmOvercast
9:53 PM42.1 °F35.1 °F76 %29.99 in10.0 miNW (320°)3.5 mphOvercast
10:34 PM42.8 °F33.8 °F70 %30.00 in10.0 miWNW (300°)6.9 mphOvercast
10:53 PM42.1 °F34.0 °F73 %30.01 in10.0 miWNW (300°)6.9 mphOvercast
11:53 PM42.1 °F34.0 °F73 %30.03 in10.0 miNW (320°)4.6 mphOvercast
Hourly data recorded from KCHA, located miles away from Cleveland, Tennessee







STORIES FROM OUR PARTNERS